Weather Roundup
Issued by NWS

Home | Current Version | Previous Version | Graphics & Text | Print | Product List | Glossary Off
Versions: 1 2 3 4 5 6 7 8 9 10 11 12 13 14 15 16 17 18 19 20 21 22 23 24 25 26 27 28 29 30 31 32 33 34 35 36 37 38 39 40 41 42 43 44 45 46 47 48 49 50

000
NZUS93 KARX 170910
HRRWXR

CURRENT HOURLY OBSERVATIONS ACROSS
MUCH OF THE UPPER MISSISSIPPI VALLEY
NATIONAL WEATHER SERVICE LA CROSSE WI
300 AM CST FRI NOV 17 2017


...SOUTHEAST MINNESOTA...


CITY           SKY/WX    TMP DP  RH WIND       PRES   REMARKS
ROCHESTER      CLOUDY    33  29  85 SE24G31   29.91F WCI  20
ROCHESTER/MAYO CLOUDY    33  29  85 SE13G25   29.92F WCI  24
WINONA         CLOUDY    36  30  80 S7        30.01F WCI  30
AUSTIN         CLOUDY    34  28  80 SE13G20   29.90F WCI  25
ALBERT LEA     CLOUDY    34  28  80 SE20G26   29.86F WCI  22
DODGE CENTER   CLOUDY    32  28  86 SE22      29.88F WCI  19
PRESTON        CLOUDY    32  28  84 SE15      29.96F WCI  21
OWATONNA       PTCLDY    34  28  80 SE24G32   29.83F WCI  21
FARIBAULT      CLOUDY    34  28  80 SE16G23   29.83F WCI  23
$$

...ELSEWHERE IN MINNESOTA...


CITY           SKY/WX    TMP DP  RH WIND       PRES   REMARKS
MINNEAPOLIS    CLOUDY    35  29  78 SE17G29   29.84F WCI  25
INTNL FALLS    CLOUDY    31  23  72 S8G20     29.71F WCI  23
DULUTH         CLOUDY    31  26  82 SE16G25   29.82F WCI  20
RED WING       CLOUDY    36  27  69 SE15G24   29.91F WCI  26
REDWOOD FALLS  CLOUDY    36  28  73 SE23G31   29.68F WCI  24
MANKATO        CLOUDY    34  29  82 SE22G30   29.78F WCI  22
WORTHINGTON    CLOUDY    34  28  79 S24G31    29.67F WCI  21
FAIRMONT       CLOUDY    34  29  82 SE29G36   29.75F WCI  20
$$

...SOUTHWEST WISCONSIN...


CITY           SKY/WX    TMP DP  RH WIND       PRES   REMARKS
LA CROSSE      CLOUDY    36  28  73 SE13      30.03F WCI  27
PRAIRIE DU CHI CLOUDY    34  28  78 SE9       30.06F WCI  27
BOSCOBEL       CLOUDY    35  28  75 SE5       30.09F WCI  31
LONE ROCK      CLOUDY    35  29  78 S12       30.12R WCI  27
PLATTEVILLE    CLOUDY    33  31  96 SE10      30.09S WCI  24
FORT MC COY    CLOUDY    33  28  82 SE9G16    30.06F WCI  26
CAMP DOUGLAS   CLOUDY    33  27  78 S14       30.06F WCI  24
MAUSTON-NEW LI CLOUDY    34  28  80 SE14      30.07F WCI  24
VIROQUA        CLOUDY    32  30  94 SE15G22   30.02F WCI  22
WIS DELLS      CLOUDY    33  28  80 S12       30.10S WCI  24
$$

...ELSEWHERE IN WISCONSIN...


CITY           SKY/WX    TMP DP  RH WIND       PRES   REMARKS
MILWAUKEE      CLOUDY    36  30  79 S3        30.14F
MADISON        CLOUDY    34  28  79 S10       30.12F WCI  26
GREEN BAY      CLOUDY    32  29  88 W6        30.17R WCI  26
EAU CLAIRE     CLOUDY    33  27  78 SE12G20   29.98F WCI  24
BLACK RVR FLS  CLOUDY    34  26  74 SE6       30.04F WCI  29
MEDFORD        CLOUDY    29  26  86 SE10G17   30.03S WCI  20
WAUSAU         CLOUDY    31  26  82 SE13      30.06F WCI  21
WIS RAPIDS     CLOUDY    32  27  81 S12       30.08F WCI  23
MARSHFIELD     CLOUDY    31  25  78 SE14      30.05F WCI  21
RICE LAKE      CLOUDY    32  27  81 SE16G24   29.94F WCI  22
$$

...NORTHEAST IOWA...


CITY           SKY/WX    TMP DP  RH WIND       PRES   REMARKS
WATERLOO       CLOUDY    33  29  85 SE21G26   29.96F WCI  21
DUBUQUE        CLOUDY    32  29  88 SE14      30.07F WCI  22
DECORAH        CLOUDY    32  30  93 SE15G24   29.98F WCI  22
MASON CITY     CLOUDY    32  28  85 SE21G30   29.90F WCI  20
CHARLES CITY   CLOUDY    32  32 100 SE21      29.94F WCI  20
OELWEIN        CLOUDY    32  32 100 SE20G26   29.99F WCI  20
$$

...ELSEWHERE IN IOWA...


CITY           SKY/WX    TMP DP  RH WIND       PRES   REMARKS
DES MOINES     CLOUDY    41  29  62 SE14      29.89F
IOWA CITY      CLOUDY    34  30  85 SE17      30.05F WCI  23
FORT DODGE     CLOUDY    37  29  72 SE16G22   29.83F WCI  28
MARSHALLTOWN   CLOUDY    34  31  88 SE15      29.93F WCI  24
CEDAR RAPIDS   CLOUDY    33  30  88 SE16G25   30.02F WCI  23
$$

...NORTHERN ILLINOIS...


CITY           SKY/WX    TMP DP  RH WIND       PRES   REMARKS
CHICAGO-OHARE  CLOUDY    37  30  75 S10       30.19S WCI  30
CHICAGO-MIDWAY CLOUDY    37  31  78 S10       30.20S WCI  30
MOLINE         CLOUDY    34  29  82 SE15G22   30.10F WCI  24
ROCKFORD       MOCLDY    33  28  81 SE10      30.16F WCI  25
PEORIA         PTCLDY    31  29  92 S8        30.17R WCI  23
$$

NOTE: "FAIR" INDICATES FEW OR NO CLOUDS BELOW 12,000 FEET WITH NO
SIGNIFICANT WEATHER AND/OR OBSTRUCTIONS TO VISIBILITY. WIND
SPEEDS ARE IN MILES-PER-HOUR.




USA.gov is the U.S. government's official web portal to all federal, state and local government web resources and services.